Voltar ao catálogo

CZ-6A DEB

AtivoSSO
NORAD 54290·DEBRIS·🇨🇳 China

Lançado Nov 11, 2022 de Taiyuan Satellite Launch Center

Loading…

Próximas Passagens (próximas 24 horas)

TLE

AtualizadoSource: Space-Track

Época: Sep 14, 2026, 07:07 UTC

1 54290U 22151AH  26257.29665466  .00000232  00000-0  94800-4 0  9999
2 54290  98.5782 263.7432 0124668 151.3576 209.4531 14.32016058199961

Acompanhe CZ-6A DEB em tempo real com AllMySat

Download on the App Store